UTA457 UWWW-UUWW

Flight info

Callsign UTA457
Flight time 1h 32m
Altitude 36000
Route K0800F360 REDMI7H REDMI T173 BMK T750 OKSUD T787 OTKOL T784 LARNO T291 URIDU L158 DIMGI DIMGI3A
Aircraft B735/M-SDFHIW/S

Departure

Time 2025-10-08 07:10
Airport Kurumoch International Airport (UWWW)

Arrival

Time 2025-10-08 08:42
Airport Vnukovo International Airport (UUWW)
Time Latitude Longitude Altitude Speed Heading
2025-10-08 06:41 53.51175 50.15933 447 ft 0 kts 332°
2025-10-08 06:56 53.51162 50.15945 447 ft 3 kts 335°
2025-10-08 06:56 53.51104 50.15967 447 ft 3 kts 14°
2025-10-08 06:57 53.51089 50.15951 447 ft 3 kts 62°
2025-10-08 07:00 53.51093 50.15962 447 ft 3 kts 59°
2025-10-08 07:00 53.51136 50.16087 447 ft 8 kts 60°
2025-10-08 07:01 53.51213 50.16328 447 ft 8 kts 62°
2025-10-08 07:01 53.51268 50.16495 447 ft 8 kts 61°
2025-10-08 07:02 53.51327 50.16678 447 ft 9 kts 66°
2025-10-08 07:02 53.51310 50.16745 447 ft 6 kts 141°
2025-10-08 07:03 53.51208 50.16810 447 ft 9 kts 160°
2025-10-08 07:03 53.51067 50.16896 446 ft 13 kts 160°
2025-10-08 07:04 53.50879 50.17010 446 ft 15 kts 160°
2025-10-08 07:04 53.50701 50.17116 447 ft 13 kts 162°
2025-10-08 07:05 53.50367 50.17312 447 ft 16 kts 160°
2025-10-08 07:05 53.50155 50.17439 447 ft 17 kts 160°
2025-10-08 07:06 53.49842 50.17627 447 ft 32 kts 160°
2025-10-08 07:06 53.49485 50.17839 447 ft 21 kts 161°
2025-10-08 07:07 53.49361 50.17913 447 ft 16 kts 160°
2025-10-08 07:07 53.49289 50.18189 431 ft 11 kts 69°
2025-10-08 07:08 53.49411 50.18304 444 ft 5 kts 339°
2025-10-08 07:08 53.49609 50.18184 433 ft 54 kts 341°
2025-10-08 07:09 53.52012 50.16772 476 ft 178 kts 340°
2025-10-08 07:09 53.54516 50.15358 1503 ft 192 kts 344°
2025-10-08 07:10 53.55763 50.14751 2390 ft 184 kts 345°
2025-10-08 07:10 53.58310 50.12772 2869 ft 233 kts 323°
2025-10-08 07:11 53.62409 50.06729 4223 ft 277 kts 303°
2025-10-08 07:11 53.64589 50.01559 6138 ft 273 kts 309°
2025-10-08 07:12 53.67092 49.96743 7720 ft 275 kts 311°
2025-10-08 07:13 53.70914 49.89347 9989 ft 281 kts 311°
2025-10-08 07:13 53.73519 49.84291 11087 ft 298 kts 311°
2025-10-08 07:14 53.75803 49.78109 12065 ft 318 kts 295°
2025-10-08 07:14 53.76689 49.74615 12731 ft 322 kts 293°
2025-10-08 07:14 53.78475 49.67619 14040 ft 329 kts 295°
2025-10-08 07:15 53.80367 49.60513 15250 ft 334 kts 295°
2025-10-08 07:15 53.82291 49.53248 16436 ft 341 kts 295°
2025-10-08 07:16 53.84248 49.45853 17644 ft 347 kts 295°
2025-10-08 07:17 53.87250 49.34502 19389 ft 354 kts 295°
2025-10-08 07:17 53.89267 49.26865 20477 ft 357 kts 295°
2025-10-08 07:17 53.90284 49.23015 21016 ft 358 kts 295°
2025-10-08 07:18 53.92329 49.15283 22052 ft 361 kts 295°
2025-10-08 07:18 53.94442 49.07521 23027 ft 365 kts 298°
2025-10-08 07:19 53.97096 49.00198 23958 ft 368 kts 303°
2025-10-08 07:19 53.99934 48.92907 24713 ft 371 kts 302°
2025-10-08 07:21 54.06885 48.74394 26555 ft 379 kts 302°
2025-10-08 07:22 54.15399 48.51730 28788 ft 383 kts 302°
2025-10-08 07:24 54.27033 48.20544 31173 ft 394 kts 301°
2025-10-08 07:26 54.39673 47.83651 33378 ft 403 kts 300°
2025-10-08 07:28 54.51185 47.50025 34881 ft 414 kts 299°
2025-10-08 07:30 54.63019 47.15357 36048 ft 421 kts 298°
2025-10-08 07:32 54.72300 46.87286 36337 ft 409 kts 297°
2025-10-08 07:34 54.84791 46.50962 34314 ft 371 kts 306°
2025-10-08 07:37 54.99986 46.16928 34285 ft 409 kts 305°
2025-10-08 07:38 55.12125 45.89493 34289 ft 410 kts 304°
2025-10-08 07:40 55.24324 45.61836 34287 ft 411 kts 304°
2025-10-08 07:42 55.40046 45.26072 34281 ft 412 kts 304°
2025-10-08 07:44 55.52278 44.98142 34281 ft 412 kts 304°
2025-10-08 07:46 55.57697 44.55983 34274 ft 404 kts 272°
2025-10-08 07:48 55.58474 44.21357 34275 ft 403 kts 272°
2025-10-08 07:50 55.59796 43.76942 34261 ft 403 kts 284°
2025-10-08 07:52 55.71036 43.42170 34280 ft 407 kts 296°
2025-10-08 07:54 55.80065 43.06145 34297 ft 398 kts 270°
2025-10-08 07:56 55.81703 42.72295 34278 ft 399 kts 274°
2025-10-08 07:58 55.84088 42.28066 34278 ft 400 kts 274°
2025-10-08 08:00 55.86219 41.88590 34281 ft 401 kts 273°
2025-10-08 08:02 55.85874 41.54030 34274 ft 399 kts 265°
2025-10-08 08:04 55.84472 41.10604 34279 ft 400 kts 265°
2025-10-08 08:06 55.83882 40.92541 34275 ft 401 kts 264°
2025-10-08 08:08 55.82496 40.53043 34274 ft 400 kts 264°
2025-10-08 08:10 55.80653 40.10088 31516 ft 384 kts 264°
2025-10-08 08:13 55.78493 39.67182 28256 ft 394 kts 262°
2025-10-08 08:14 55.76183 39.33272 28261 ft 395 kts 262°
2025-10-08 08:17 55.73062 38.89800 27190 ft 399 kts 261°
2025-10-08 08:18 55.71355 38.67808 24568 ft 369 kts 261°
2025-10-08 08:18 55.70684 38.58952 23589 ft 355 kts 261°
2025-10-08 08:19 55.70040 38.50452 22954 ft 348 kts 261°
2025-10-08 08:19 55.69382 38.41876 22176 ft 351 kts 261°
2025-10-08 08:20 55.69055 38.37627 21689 ft 346 kts 261°
2025-10-08 08:21 55.67759 38.20967 20729 ft 341 kts 261°
2025-10-08 08:21 55.67419 38.16800 20620 ft 343 kts 261°
2025-10-08 08:21 55.66735 38.08467 20427 ft 342 kts 261°
2025-10-08 08:22 55.66055 38.00121 19923 ft 340 kts 261°
2025-10-08 08:22 55.65719 37.95999 19680 ft 335 kts 261°
2025-10-08 08:23 55.65023 37.88000 19254 ft 324 kts 256°
2025-10-08 08:23 55.61968 37.77346 17813 ft 323 kts 237°
2025-10-08 08:24 55.59688 37.70684 17107 ft 314 kts 239°
2025-10-08 08:24 55.58588 37.67332 16859 ft 316 kts 239°
2025-10-08 08:25 55.54848 37.57898 16041 ft 312 kts 214°
2025-10-08 08:25 55.50781 37.55981 15525 ft 298 kts 184°
2025-10-08 08:26 55.46673 37.55374 15118 ft 297 kts 187°
2025-10-08 08:26 55.42523 37.54428 14408 ft 302 kts 187°
2025-10-08 08:27 55.38336 37.53483 13846 ft 303 kts 188°
2025-10-08 08:27 55.35873 37.52323 12866 ft 293 kts 209°
2025-10-08 08:28 55.35629 37.52088 12779 ft 291 kts 213°
2025-10-08 08:28 55.32913 37.43480 11209 ft 266 kts 250°
2025-10-08 08:29 55.32322 37.37408 10288 ft 251 kts 284°
2025-10-08 08:29 55.34228 37.32528 9292 ft 240 kts 313°
2025-10-08 08:30 55.36448 37.28299 8159 ft 230 kts 312°
2025-10-08 08:30 55.38557 37.24319 7124 ft 215 kts 313°
2025-10-08 08:31 55.40568 37.20577 6150 ft 207 kts 313°
2025-10-08 08:31 55.41551 37.18746 5672 ft 203 kts 313°
2025-10-08 08:32 55.44721 37.14291 4269 ft 193 kts 359°
2025-10-08 08:32 55.47029 37.16369 3520 ft 189 kts 45°
2025-10-08 08:33 55.48852 37.19655 2933 ft 189 kts 47°
2025-10-08 08:33 55.50623 37.22906 2537 ft 178 kts 47°
2025-10-08 08:34 55.52361 37.26098 2203 ft 179 kts 47°
2025-10-08 08:34 55.54106 37.29303 2201 ft 182 kts 47°
2025-10-08 08:35 55.54969 37.30888 2197 ft 182 kts 47°
2025-10-08 08:35 55.56714 37.34095 2195 ft 180 kts 47°
2025-10-08 08:36 55.58432 37.37254 2196 ft 177 kts 47°
2025-10-08 08:36 55.60128 37.40374 2198 ft 174 kts 47°
2025-10-08 08:37 55.63316 37.46215 2179 ft 157 kts 43°
2025-10-08 08:37 55.64334 37.46800 1961 ft 160 kts 355°
2025-10-08 08:38 55.65644 37.44083 1680 ft 153 kts 272°
2025-10-08 08:38 55.64659 37.40897 1364 ft 152 kts 220°
2025-10-08 08:39 55.63852 37.39781 1407 ft 144 kts 214°
2025-10-08 08:39 55.62269 37.37724 1392 ft 140 kts 219°
2025-10-08 08:40 55.60761 37.35293 1299 ft 151 kts 231°
2025-10-08 08:40 55.60299 37.31645 1245 ft 154 kts 262°
2025-10-08 08:41 55.59402 37.27221 667 ft 60 kts 246°
2025-10-08 08:41 55.59231 37.26481 669 ft 10 kts 275°